When you browse on this site, cookies collect data to enhance your experience and personalize the content and advertising you see.
Visit our Privacy Policy to learn more. By continuing to use the site, you agree to this use of cookies and data.
  • In Hungary
  • List of Countries
  • For 7 days
  • Water Temperature
  • Satellite Maps
  • Weather Map
  • News
  • Weather Widgets
  • user-avatar
    Login

    Hourly Weather Osaka

    Today, 19 January, Saturday

    Time Temperature Precipitation Wind Pressure Humidity
    00:00 +6°C° 0 mm 1 mps 768 mmHg 63%
    01:00 +6°C° 0 mm 1 mps 768 mmHg 64%
    02:00 +6°C° 0 mm 1 mps 768 mmHg 65%
    03:00 +6°C° 0 mm 1 mps 768 mmHg 68%
    04:00 +6°C° 0 mm 1 mps 768 mmHg 69%
    05:00 +6°C° 0 mm 1 mps 768 mmHg 71%
    06:00 +6°C° 0 mm 1 mps 768 mmHg 72%
    07:00 +6°C° 0 mm 1 mps 768 mmHg 70%
    08:00 +7°C° 0 mm 1 mps 768 mmHg 67%
    09:00 +7°C° 0 mm 1 mps 768 mmHg 67%
    10:00 +8°C° 0 mm 2 mps 768 mmHg 63%
    11:00 +9°C° 0 mm 2 mps 767 mmHg 59%
    12:00 +10°C° 0 mm 2 mps 767 mmHg 55%
    13:00 +11°C° 0 mm 3 mps 766 mmHg 51%
    14:00 +11°C° 0 mm 3 mps 766 mmHg 48%
    15:00 +12°C° 0 mm 3 mps 765 mmHg 45%
    16:00 +12°C° 0 mm 2 mps 765 mmHg 45%
    17:00 +12°C° 0 mm 2 mps 765 mmHg 46%
    18:00 +11°C° 0 mm 1 mps 765 mmHg 47%
    19:00 +11°C° 0 mm 1 mps 765 mmHg 47%
    20:00 +9°C° 0 mm 2 mps 765 mmHg 48%
    21:00 +9°C° 0 mm 2 mps 765 mmHg 49%
    22:00 +9°C° 0 mm 2 mps 764 mmHg 50%
    23:00 +8°C° 0 mm 2 mps 764 mmHg 50%

    Tomorrow, 20 January, Sunday

    Time Temperature Precipitation Wind Pressure Humidity
    00:00 +8°C° 0 mm 2 mps 764 mmHg 51%
    01:00 +8°C° 0 mm 2 mps 763 mmHg 52%
    02:00 +8°C° 0 mm 2 mps 763 mmHg 54%
    03:00 +8°C° 0 mm 2 mps 762 mmHg 55%
    04:00 +8°C° 0 mm 2 mps 761 mmHg 56%
    05:00 +8°C° 0 mm 2 mps 760 mmHg 57%
    06:00 +8°C° 0 mm 2 mps 760 mmHg 58%
    07:00 +9°C° 0.1 mm 2 mps 759 mmHg 60%
    08:00 +10°C° 0.1 mm 3 mps 759 mmHg 62%
    09:00 +11°C° 0.1 mm 3 mps 758 mmHg 65%
    10:00 +11°C° 0.5 mm 4 mps 758 mmHg 68%
    11:00 +10°C° 0.5 mm 5 mps 757 mmHg 72%
    12:00 +11°C° 0.5 mm 6 mps 757 mmHg 75%
    13:00 +11°C° 0.1 mm 6 mps 757 mmHg 69%
    14:00 +11°C° 0.1 mm 6 mps 757 mmHg 63%
    15:00 +11°C° 0.1 mm 6 mps 757 mmHg 57%
    16:00 +11°C° 0.1 mm 6 mps 757 mmHg 56%
    17:00 +10°C° 0.1 mm 6 mps 758 mmHg 55%
    18:00 +9°C° 0.1 mm 6 mps 758 mmHg 54%
    19:00 +9°C° 0 mm 6 mps 759 mmHg 55%
    20:00 +8°C° 0 mm 6 mps 759 mmHg 56%
    21:00 +8°C° 0 mm 6 mps 759 mmHg 58%
    22:00 +7°C° 0.1 mm 5 mps 759 mmHg 60%
    23:00 +7°C° 0.1 mm 5 mps 760 mmHg 63%

    Day after tomorrow, 21 January, Monday

    Time Temperature Precipitation Wind Pressure Humidity
    00:00 +6°C° 0.1 mm 5 mps 760 mmHg 66%
    01:00 +5°C° 0.2 mm 5 mps 760 mmHg 65%
    02:00 +5°C° 0.2 mm 5 mps 761 mmHg 65%
    03:00 +3°C° 0.2 mm 5 mps 761 mmHg 65%
    04:00 +3°C° 0 mm 5 mps 761 mmHg 65%
    05:00 +3°C° 0 mm 4 mps 761 mmHg 65%
    06:00 +3°C° 0 mm 3 mps 762 mmHg 65%
    07:00 +3°C° 0 mm 3 mps 762 mmHg 63%
    08:00 +4°C° 0 mm 2 mps 762 mmHg 62%
    09:00 +6°C° 0 mm 1 mps 762 mmHg 60%
    10:00 +5°C° 0 mm 2 mps 762 mmHg 56%
    11:00 +6°C° 0 mm 2 mps 762 mmHg 52%
    12:00 +7°C° 0 mm 2 mps 761 mmHg 48%
    13:00 +8°C° 0 mm 3 mps 761 mmHg 49%
    14:00 +7°C° 0 mm 4 mps 761 mmHg 49%
    15:00 +8°C° 0 mm 4 mps 760 mmHg 49%
    16:00 +8°C° 0.1 mm 4 mps 760 mmHg 48%
    17:00 +8°C° 0.1 mm 5 mps 760 mmHg 47%
    18:00 +8°C° 0.1 mm 5 mps 761 mmHg 46%
    19:00 +7°C° 0 mm 5 mps 761 mmHg 48%
    20:00 +7°C° 0 mm 5 mps 761 mmHg 49%
    21:00 +6°C° 0 mm 5 mps 761 mmHg 51%
    22:00 +6°C° 0 mm 5 mps 761 mmHg 52%
    23:00 +6°C° 0 mm 5 mps 761 mmHg 54%

    22 January, Tuesday

    Time Temperature Precipitation Wind Pressure Humidity
    00:00 +6°C° 0 mm 5 mps 760 mmHg 56%
    01:00 +6°C° 0.1 mm 5 mps 760 mmHg 57%
    02:00 +5°C° 0.1 mm 6 mps 760 mmHg 58%
    03:00 +5°C° 0.1 mm 6 mps 760 mmHg 60%
    04:00 +5°C° 0.1 mm 6 mps 760 mmHg 60%
    05:00 +6°C° 0.1 mm 5 mps 760 mmHg 60%
    06:00 +6°C° 0.1 mm 5 mps 760 mmHg 60%
    07:00 +5°C° 0 mm 6 mps 760 mmHg 58%
    08:00 +7°C° 0 mm 6 mps 760 mmHg 56%
    09:00 +7°C° 0 mm 6 mps 760 mmHg 54%
    10:00 +8°C° 0 mm 6 mps 760 mmHg 52%
    11:00 +8°C° 0 mm 6 mps 760 mmHg 50%
    12:00 +9°C° 0 mm 6 mps 759 mmHg 48%
    13:00 +9°C° 0 mm 6 mps 759 mmHg 48%
    14:00 +9°C° 0 mm 6 mps 759 mmHg 47%
    15:00 +9°C° 0 mm 6 mps 759 mmHg 47%
    16:00 +9°C° 0 mm 5 mps 759 mmHg 47%
    17:00 +8°C° 0 mm 5 mps 759 mmHg 48%
    18:00 +8°C° 0 mm 5 mps 760 mmHg 49%
    19:00 +8°C° 0 mm 5 mps 760 mmHg 49%
    20:00 +7°C° 0 mm 5 mps 760 mmHg 49%
    21:00 +7°C° 0 mm 5 mps 760 mmHg 50%
    22:00 +7°C° 0 mm 5 mps 760 mmHg 51%
    23:00 +7°C° 0 mm 5 mps 760 mmHg 52%

    23 January, Wednesday

    Time Temperature Precipitation Wind Pressure Humidity
    00:00 +6°C° 0 mm 4 mps 760 mmHg 53%
    01:00 +6°C° 0 mm 4 mps 760 mmHg 54%
    02:00 +6°C° 0 mm 4 mps 760 mmHg 56%
    03:00 +6°C° 0 mm 4 mps 759 mmHg 57%
    04:00 +6°C° 0.1 mm 4 mps 759 mmHg 59%
    05:00 +6°C° 0.1 mm 4 mps 759 mmHg 60%
    06:00 +6°C° 0.1 mm 4 mps 759 mmHg 62%
    07:00 +7°C° 0 mm 5 mps 759 mmHg 59%
    08:00 +7°C° 0 mm 6 mps 760 mmHg 57%
    09:00 +8°C° 0 mm 7 mps 760 mmHg 55%
    10:00 +8°C° 0 mm 7 mps 760 mmHg 52%
    11:00 +9°C° 0 mm 7 mps 759 mmHg 48%
    12:00 +10°C° 0 mm 7 mps 759 mmHg 45%
    13:00 +10°C° 0 mm 8 mps 759 mmHg 43%
    14:00 +10°C° 0 mm 8 mps 759 mmHg 40%
    15:00 +10°C° 0 mm 8 mps 759 mmHg 38%
    16:00 +9°C° 0 mm 8 mps 759 mmHg 43%
    17:00 +7°C° 0 mm 8 mps 760 mmHg 48%
    18:00 +6°C° 0 mm 8 mps 761 mmHg 53%
    19:00 +5°C° 0 mm 8 mps 761 mmHg 55%
    20:00 +4°C° 0 mm 7 mps 762 mmHg 56%
    21:00 +3°C° 0 mm 7 mps 763 mmHg 57%
    22:00 +3°C° 0 mm 7 mps 764 mmHg 56%
    23:00 +2°C° 0 mm 6 mps 764 mmHg 55%

    24 January, Thursday

    Time Temperature Precipitation Wind Pressure Humidity
    00:00 +2°C° 0 mm 6 mps 764 mmHg 53%
    01:00 +2°C° 0 mm 5 mps 765 mmHg 54%
    02:00 +2°C° 0 mm 5 mps 765 mmHg 56%
    03:00 +1°C° 0 mm 5 mps 765 mmHg 57%
    04:00 +1°C° 0 mm 5 mps 765 mmHg 58%
    05:00 +1°C° 0 mm 4 mps 766 mmHg 59%
    06:00 +1°C° 0 mm 4 mps 766 mmHg 61%
    07:00 +3°C° 0 mm 4 mps 766 mmHg 59%
    08:00 +3°C° 0 mm 4 mps 767 mmHg 57%
    09:00 +4°C° 0 mm 4 mps 767 mmHg 55%
    10:00 +5°C° 0 mm 4 mps 767 mmHg 51%
    11:00 +5°C° 0 mm 4 mps 767 mmHg 48%
    12:00 +6°C° 0 mm 4 mps 767 mmHg 44%
    13:00 +6°C° 0 mm 4 mps 766 mmHg 44%
    14:00 +7°C° 0 mm 3 mps 766 mmHg 44%
    15:00 +8°C° 0 mm 3 mps 766 mmHg 44%
    16:00 +7°C° 0 mm 3 mps 766 mmHg 47%
    17:00 +7°C° 0 mm 3 mps 766 mmHg 50%
    18:00 +5°C° 0 mm 3 mps 767 mmHg 53%
    19:00 +5°C° 0 mm 3 mps 767 mmHg 55%
    20:00 +5°C° 0 mm 2 mps 767 mmHg 58%
    21:00 +5°C° 0 mm 2 mps 767 mmHg 61%
    22:00 +5°C° 0 mm 2 mps 767 mmHg 62%
    23:00 +5°C° 0 mm 1 mps 767 mmHg 63%
    Show more